Regional Weather Roundup
Issued by NWS

Home | Current Version | Previous Version | Text Only | Print | Product List | Glossary Off
Versions: 1 2 3 4 5 6 7 8 9 10 11 12 13 14 15 16 17 18 19 20 21 22 23 24 25 26 27 28 29 30 31 32 33 34 35 36 37 38 39 40 41 42 43 44 45 46 47 48 49 50

000
ASUS43 KOAX 200002
RWRNE

WEATHER ROUNDUP FOR NEBRASKA
NATIONAL WEATHER SERVICE OMAHA NE
700 PM CDT THU OCT 19 2017

NOTES: SATELLITE DATA IS BEING USED TO AUGMENT CLOUD COVER ABOVE
       12000 FEET.
       "FAIR" INDICATES FEW OR NO CLOUDS BELOW 12,000 FEET WITH NO
       SIGNIFICANT WEATHER AND/OR OBSTRUCTIONS TO VISIBILITY.


NEZ001>004-019>022-054>056-200100-
NEBRASKA PANHANDLE

CITY           SKY/WX    TMP DP  RH WIND       PRES   REMARKS
SCOTTSBLUFF    CLOUDY    68  30  24 SE6       29.83F
6HR MIN TEMP:  68; 6HR MAX TEMP:  83;

ALLIANCE       CLEAR     64  36  35 VRB3G20   29.83F
6HR MIN TEMP:  64; 6HR MAX TEMP:  82;

CHADRON        CLEAR     71  25  17 S9        29.78F
6HR MIN TEMP:  71; 6HR MAX TEMP:  87;

GORDON         FAIR      72  33  24 S6        29.83S
6HR MIN TEMP:  72; 6HR MAX TEMP:  84;

KIMBALL        CLOUDY    67  32  27 S7        29.90F
SIDNEY         CLOUDY    69  34  27 S13       29.89F
6HR MIN TEMP:  69; 6HR MAX TEMP:  84;

$$

NEZ057>060-069>072-079>082-200100-
SOUTHWEST NEBRASKA

CITY           SKY/WX    TMP DP  RH WIND       PRES   REMARKS
NORTH PLATTE   CLEAR     71  47  42 SE7       29.89S
6HR MIN TEMP:  71; 6HR MAX TEMP:  80;

IMPERIAL       CLOUDY    71  42  35 SE12      29.89F
6HR MIN TEMP:  71; 6HR MAX TEMP:  85;

LEXINGTON      CLEAR     70  48  44 S9        29.91S
MCCOOK         CLEAR     72  46  39 SE9       29.90F
6HR MIN TEMP:  72; 6HR MAX TEMP:  84;

OGALLALA       CLOUDY    74  42  31 S8        29.87F
$$

NEZ005>010-023>029-035>040-094-200100-
NORTH CENTRAL NEBRASKA

CITY           SKY/WX    TMP DP  RH WIND       PRES   REMARKS
VALENTINE      CLEAR     75  38  26 S13       29.83R
6HR MIN TEMP:  75; 6HR MAX TEMP:  87;

AINSWORTH      CLEAR     67  46  47 S8        29.87S
BROKEN BOW     CLEAR     69  50  50 SE8       29.90F
6HR MIN TEMP:  69; 6HR MAX TEMP:  79;

O`NEILL        CLEAR     68  49  49 S9        29.89S
ORD            CLEAR     72  48  42 SE8       29.89F
6HR MIN TEMP:  70; 6HR MAX TEMP:  80;

THEDFORD       CLEAR     71  45  39 S10       29.89S
$$

NEZ041-046>049-061>064-073>077-083>087-200100-
SOUTH CENTRAL NEBRASKA

CITY           SKY/WX    TMP DP  RH WIND       PRES   REMARKS
GRAND ISLAND   CLEAR     71  51  49 SE9       29.94S
6HR MIN TEMP:  71; 6HR MAX TEMP:  81;

AURORA         CLEAR     71  49  46 S7        29.95S
HASTINGS       CLEAR     73  48  41 S12       29.95S
6HR MIN TEMP:  72; 6HR MAX TEMP:  81;

HEBRON         CLEAR     73  48  41 S8        29.96S
HOLDREGE       CLEAR     73  46  38 S12       29.93S
KEARNEY        CLEAR     70  49  47 S10       29.93S
YORK           CLEAR     72  50  46 S8        29.96R
$$

NEZ011>018-030>034-042>045-200100-
NORTHEAST NEBRASKA

CITY           SKY/WX    TMP DP  RH WIND       PRES   REMARKS
NORFOLK        CLEAR     64  50  60 SE8       29.90F
6HR MIN TEMP:  64; 6HR MAX TEMP:  79;

ALBION         CLEAR     66  48  51 SE6       29.92S
BLAIR          CLEAR     70  55  57 SE6       29.97S
COLUMBUS       CLEAR     70  53  54 SE7       29.94S
FREMONT        CLEAR     70  54  57 SE5       29.96S
TEKAMAH        CLEAR     66  52  60 SE8       29.95S
6HR MIN TEMP:  66; 6HR MAX TEMP:  79;

WAYNE          CLEAR     63  50  63 SE7       29.92F
$$

NEZ050>053-065>068-078-088>093-200100-
SOUTHEAST NEBRASKA

CITY           SKY/WX    TMP DP  RH WIND       PRES   REMARKS
LINCOLN        CLEAR     67  52  58 S8        29.97S
6HR MIN TEMP:  67; 6HR MAX TEMP:  80;

OMAHA EPPLEY   PTCLDY    68  54  60 SE8       29.97S
6HR MIN TEMP:  68; 6HR MAX TEMP:  78;

BEATRICE       CLEAR     73  51  45 S8        29.98S
FALLS CITY     CLEAR     68  51  54 SE7       30.00F HAZE
6HR MIN TEMP:  68; 6HR MAX TEMP:  79;

NEBRASKA CITY  CLEAR     67  53  60 S7        30.00S
PLATTSMOUTH    CLEAR     72  53  51 SE8       29.99R
$$

NEZ044-045-051>053-067-200100-
OMAHA AREA

CITY           SKY/WX    TMP DP  RH WIND       PRES   REMARKS
OMAHA EPPLEY   PTCLDY    68  54  60 SE8       29.97S
6HR MIN TEMP:  68; 6HR MAX TEMP:  78;

BLAIR          CLEAR     70  55  57 SE6       29.97S
FREMONT        CLEAR     70  54  57 SE5       29.96S
MILLARD        CLEAR     73  55  54 SE5       29.97S
OFFUTT AFB     CLEAR     70  53  56 SE8       29.97S
PLATTSMOUTH    CLEAR     72  53  51 SE8       29.99R
WAHOO          FAIR      69  51  53 S8        29.96S
$$




USA.gov is the U.S. government's official web portal to all federal, state and local government web resources and services.